Regional Weather Roundup
Issued by NWS

Home | Current Version | Previous Version | Graphics & Text | Print | Product List | Glossary On
Versions: 1 2 3 4 5 6 7 8 9 10 11 12 13 14 15 16 17 18 19 20 21 22 23 24 25 26 27
000
ASUS45 KBOU 260707
RWRCO

WEATHER ROUNDUP FOR COLORADO
NATIONAL WEATHER SERVICE DENVER/BOULDER CO
100 AM MDT TUE JUL 26 2016

NOTE: "FAIR" INDICATES FEW OR NO CLOUDS BELOW 12000 FEET WITH NO
SIGNIFICANT WEATHER AND/OR OBSTRUCTIONS TO VISIBILITY.

COZ001>005-013-030-031-260800-
...NORTHWEST COLORADO...

CITY           SKY/WX    TMP DP  RH WIND       PRES   REMARKS
CRAIG          FAIR      69  37  30 CALM      30.23S
HAYDEN         FAIR      70  36  28 E6        30.26F
MEEKER         FAIR      63  45  51 E5        30.27F
MOUNT WERNER   NOT AVBL
STEAMBOAT SPGS FAIR      70  37  29 SW6       30.28S
WALDEN         FAIR      59  34  38 E6        30.41S
$$

COZ006>008-011-260800-
...WEST CENTRAL VALLEYS...

CITY           SKY/WX    TMP DP  RH WIND       PRES   REMARKS
GRAND JUNCTION FAIR      80  43  26 N7        30.12F
MONTROSE       FAIR      70  46  42 SE8       30.25F
EAGLE          FAIR      64  37  36 E3        30.33S
RIFLE          FAIR      73  42  32 E6        30.20S
DELTA          FAIR      75  43  31 NE7       30.19S
NUCLA          NOT AVBL
$$

COZ017>023-064>068-260800-
...SOUTHWEST COLORADO...

CITY           SKY/WX    TMP DP  RH WIND       PRES   REMARKS
DURANGO        FAIR      67  47  48 CALM      30.30F
CORTEZ         FAIR      67  49  52 E3        30.24F
PAGOSA SPRINGS DRIZZLE   66  49  53 CALM      30.40S
TELLURIDE      MOCLDY    61  43  52 SE3       30.53S
WOLF CREEK PAS CLOUDY    52  36  54 E6        30.76S
$$

COZ009-010-012-014-032>034-037-058>063-260800-
...CENTRAL COLORADO...

CITY           SKY/WX    TMP DP  RH WIND       PRES   REMARKS
ASPEN          FAIR      57  41  55 S5        30.40S
BUENA VISTA    FAIR      63  46  53 E7        30.45S
COPPER MTN     CLOUDY    59  25  27 NW6       30.74F
BERTHOUD PASS  FAIR      48  34  57 N13       30.77F
COTTONWOOD PAS CLOUDY    61  41  48 E3        30.59S
GUNNISON       FAIR      57  46  67 SW3       30.44R
KREMMLING      MOCLDY    57  41  54 CALM      30.38F
LEADVILLE      FAIR      49  34  56 NE6       30.57S
MONARCH PASS   FAIR      52  34  50 MISG      30.84S
SALIDA         MOCLDY    67  48  50 SE12      30.48F
SUNLIGHT       FAIR      59  34  38 CALM      30.66S
WILKERSON PASS CLOUDY    48  37  66 S20G28    30.71F
$$

COZ069>075-260800-
...SAN LUIS VALLEY/SANGRE DE CRISTO MOUNTAINS...

CITY           SKY/WX    TMP DP  RH WIND       PRES   REMARKS
ALAMOSA        CLOUDY    67  48  50 SE10      30.39R
LA VETA PASS   CLOUDY    52  45  76 SE6       30.61F
SAGUACHE       FAIR      63  45  51 W8        30.42F
$$

COZ035-036-038>040-260800-
...NORTHERN COLORADO FRONT RANGE...

CITY           SKY/WX    TMP DP  RH WIND       PRES   REMARKS
DENVER INTL AP FAIR      76  46  34 S20G26    30.15F
DMNS CITY PARK   N/A     76  45  32 S8G15     30.14F
AURORA         PTCLDY    74  47  39 S15       30.18F
FRONT RANGE AP NOT AVBL
ERIE MUNI ARPT FAIR      76  44  32 S8        30.11F
BOULDER MUN AP FAIR      72  43  35 CALM      30.14S
CENTENNIAL     MOCLDY    73  42  32 SW13      30.20F
BROOMFIELD     FAIR      73  45  35 SW6       30.17F
LONGMONT       FAIR      67  58  73 CALM      30.14F
$$

COZ041-046-047-076>085-087-088-260800-
...PIKES PEAK/PALMER DIVIDE AND SOUTHERN FOOTHILLS...

CITY           SKY/WX    TMP DP  RH WIND       PRES   REMARKS
COLO. SPRINGS  MOCLDY    67  50  54 CALM      30.32F
A. F. ACADEMY  MOCLDY    68  47  47 SE13      30.29F
SCHRIEVER AFB  NOT AVBL
ELLICOTT       FAIR     N/A N/A N/A NW5       30.30F
FALCON         NOT AVBL
FORT CARSON    CLOUDY    69  50  51 SW12      30.27F
LIMON          NOT AVBL
MONUMENT HILL  FAIR      61  45  55 S16       30.33F
TRINIDAD       NOT AVBL
$$

COZ042>045-048>051-090-091-260800-
...NORTHEAST COLORADO...

CITY           SKY/WX    TMP DP  RH WIND       PRES   REMARKS
GREELEY ARPT   FAIR      64  55  72 E6        30.13S
AKRON          FAIR      65  60  84 SE12      30.16F
BURLINGTON     FAIR      70  64  81 S13       30.15F
WRAY           FAIR      68  63  83 E8        30.14F
STERLING       FAIR      68  63  83 S7        30.11F
HOLYOKE          N/A     66  63  88 W7        30.14F
FORT MORGAN    FAIR      63  59  88 E5        30.14F
$$

COZ086-089-092>099-260800-
...SOUTHEAST COLORADO...

CITY           SKY/WX    TMP DP  RH WIND       PRES   REMARKS
PUEBLO         FAIR      68  59  73 NW7       30.22F
LA JUNTA       FAIR      69  56  62 W15       30.16R
LAMAR          FAIR      75  58  55 SE12      30.05F
SPRINGFIELD      N/A     70  58  65 CALM      30.18F
$$




USA.gov is the U.S. government's official web portal to all federal, state and local government web resources and services.